STARLINK-32182 (60319 NORAD) Tracking and Keplerian Element Data

This shows tracking and keplerian element data for the satellite.

Feedback or suggestion? Click here.




ElementValue
Catalog60319
NameSTARLINK-32182
Epoch Orbit1295
Epoch Day286.4158825
Epoch Year2024
RAAN168.428
Inclination53.1598
Eccentricity2.19E-05
Argument of Perigee101.8976
Mean Anonmoly258.2054
Mean Motion15.39616556
Decay Rate-4.694E-05
L11 60319U 24133U 24286.41588250 -.00004694 00000+0 -10747-3 0 9993
L22 60319 53.1598 168.4280 0000219 101.8976 258.2054 15.39616556 12955



Live tracking and technical data element details for STARLINK-32182 (NORAD 60319). STARLINK-32182 can be tracked NOW for your location showing map with azimuth and elevation plus other details from your city location.







IsCatalogInMostPopularTable: catalog: 60319, numindb: 7
Update: records affected: 1



GetName: 60319 STARLINK-32182

Hit Count: updated at: Tue, 03 Dec 2024 02:34:19 GMT